| time (UTC) | temp C | wind direction | speed KPH | gust KPH | rain 1hr cm | rain 24hr cm | rain mn cm | humidity % | barometer mb |
| 20260508223006 | 7 | 289 | 3.2 | 12.9 | 0.00 | 0.05 | 0.00 | 84 | 1002.9 |
| 20260508221607 | 7 | 278 | 3.2 | 12.9 | 0.00 | 0.05 | 0.00 | 84 | 1002.7 |
| 20260508220003 | 6 | 316 | 3.2 | 16.1 | 0.00 | 0.05 | 0.00 | 88 | 1002.5 |
| 20260508214622 | 7 | 307 | 4.8 | 16.1 | 0.00 | 0.33 | 0.00 | 87 | 1002.1 |
| 20260508213059 | 7 | 326 | 4.8 | 20.9 | 0.00 | 0.33 | 0.00 | 84 | 1001.9 |
| 20260508211600 | 8 | 338 | 6.4 | 22.5 | 0.00 | 0.33 | 0.00 | 80 | 1001.9 |
| 20260508210057 | 9 | 316 | 9.7 | 17.7 | 0.00 | 0.33 | 0.00 | 80 | 1001.7 |
| 20260508204602 | 9 | 357 | 8.0 | 20.9 | 0.00 | 1.14 | 0.00 | 80 | 1001.5 |
| 20260508203053 | 9 | 329 | 11.3 | 24.1 | 0.00 | 1.14 | 0.00 | 80 | 1001.4 |
| 20260508201552 | 9 | 16 | 9.7 | 29.0 | 0.00 | 1.14 | 0.00 | 82 | 1001.1 |
| 20260508200046 | 10 | 22 | 6.4 | 20.9 | 0.00 | 1.14 | 0.00 | 81 | 1000.8 |
| 20260508194611 | 10 | 346 | 11.3 | 25.7 | 0.00 | 1.55 | 0.00 | 81 | 1000.7 |
| 20260508193044 | 10 | 337 | 9.7 | 19.3 | 0.00 | 1.55 | 0.00 | 81 | 1000.7 |
| 20260508191540 | 9 | 338 | 8.0 | 24.1 | 0.00 | 1.55 | 0.00 | 83 | 1000.6 |
| 20260508190039 | 9 | 330 | 9.7 | 32.2 | 0.00 | 1.55 | 0.00 | 83 | 1000.4 |
| 20260508184539 | 10 | 31 | 11.3 | 25.7 | 0.00 | 1.65 | 0.00 | 81 | 1000.3 |
| 20260508183037 | 10 | 341 | 9.7 | 25.7 | 0.00 | 1.65 | 0.00 | 81 | 1000.5 |
| 20260508181545 | 10 | 320 | 8.0 | 27.4 | 0.00 | 1.65 | 0.00 | 80 | 1000.7 |
| 20260508180026 | 10 | 346 | 11.3 | 22.5 | 0.00 | 1.65 | 0.00 | 82 | 1001.0 |
| 20260508174521 | 10 | 339 | 6.4 | 20.9 | 0.00 | 1.65 | 0.00 | 83 | 1000.9 |
| 20260508173031 | 10 | 334 | 11.3 | 25.7 | 0.00 | 1.65 | 0.00 | 83 | 1000.8 |
| 20260508171523 | 8 | 286 | 11.3 | 25.7 | 0.00 | 1.65 | 0.00 | 85 | 1001.0 |
| 20260508170013 | 8 | 298 | 11.3 | 20.9 | 0.00 | 1.65 | 0.00 | 87 | 1001.2 |
| 20260508164516 | 8 | 323 | 8.0 | 16.1 | 0.00 | 1.65 | 0.00 | 87 | 1001.1 |
| 20260508163019 | 8 | 3 | 6.4 | 22.5 | 0.00 | 1.65 | 0.00 | 88 | 1001.1 |
| 20260508161521 | 8 | 352 | 4.8 | 19.3 | 0.00 | 1.65 | 0.00 | 88 | 1001.1 |
| 20260508160013 | 8 | 31 | 6.4 | 19.3 | 0.00 | 1.65 | 0.00 | 87 | 1001.2 |
| 20260508154509 | 8 | 345 | 8.0 | 20.9 | 0.00 | 1.65 | 0.00 | 86 | 1001.2 |
| 20260508153008 | 8 | 355 | 11.3 | 19.3 | 0.00 | 1.65 | 0.00 | 87 | 1000.9 |
| 20260508151506 | 8 | 333 | 6.4 | 22.5 | 0.00 | 1.65 | 0.00 | 87 | 1001.1 |
| 20260508150007 | 8 | 298 | 9.7 | 22.5 | 0.00 | 1.65 | 0.00 | 88 | 1001.0 |
| 20260508144600 | 8 | 317 | 8.0 | 19.3 | 0.00 | 1.65 | 0.00 | 89 | 1001.3 |
| 20260508143101 | 8 | 333 | 9.7 | 20.9 | 0.00 | 1.65 | 0.00 | 89 | 1001.4 |
| 20260508141602 | 7 | 318 | 8.0 | 22.5 | 0.00 | 1.65 | 0.00 | 90 | 1001.5 |
| 20260508140057 | 7 | 348 | 8.0 | 19.3 | 0.00 | 1.65 | 0.00 | 89 | 1001.7 |
| 20260508134559 | 7 | 326 | 8.0 | 17.7 | 0.00 | 1.65 | 0.00 | 89 | 1001.8 |
| 20260508133104 | 7 | 352 | 6.4 | 19.3 | 0.00 | 1.65 | 0.00 | 90 | 1002.2 |
| 20260508131553 | 7 | 335 | 8.0 | 20.9 | 0.00 | 1.65 | 0.00 | 90 | 1001.7 |
| 20260508130050 | 7 | 345 | 9.7 | 17.7 | 0.00 | 1.65 | 0.00 | 91 | 1001.6 |
| 20260508124548 | 8 | 304 | 4.8 | 17.7 | 0.00 | 1.65 | 0.00 | 93 | 1001.6 |
| 20260508123054 | 7 | 331 | 8.0 | 16.1 | 0.00 | 1.65 | 0.00 | 94 | 1001.6 |
| 20260508121550 | 7 | 313 | 4.8 | 14.5 | 0.00 | 1.65 | 0.00 | 95 | 1001.8 |
| 20260508120040 | 6 | 322 | 6.4 | 12.9 | 0.00 | 1.65 | 0.00 | 95 | 1001.6 |
| 20260508114538 | 6 | 336 | 6.4 | 14.5 | 0.00 | 1.65 | 0.00 | 95 | 1001.9 |
| 20260508113036 | 6 | 326 | 3.2 | 12.9 | 0.00 | 1.65 | 0.00 | 95 | 1001.6 |
| 20260508111535 | 6 | 316 | 3.2 | 9.7 | 0.00 | 1.65 | 0.00 | 95 | 1001.6 |
| 20260508110035 | 5 | 322 | 6.4 | 12.9 | 0.00 | 1.65 | 0.00 | 95 | 1001.7 |
| 20260508104530 | 5 | 324 | 3.2 | 11.3 | 0.00 | 1.65 | 0.00 | 95 | 1002.2 |
| 20260508103029 | 5 | 283 | 3.2 | 12.9 | 0.00 | 1.65 | 0.00 | 95 | 1002.0 |
| 20260508101528 | 5 | 333 | 6.4 | 16.1 | 0.00 | 1.65 | 0.00 | 95 | 1002.0 |
| 20260508100026 | 5 | 323 | 4.8 | 12.9 | 0.00 | 1.65 | 0.00 | 95 | 1001.8 |
| 20260508094523 | 5 | 33 | 4.8 | 11.3 | 0.00 | 1.65 | 0.00 | 95 | 1001.7 |
| 20260508093024 | 5 | 333 | 3.2 | 11.3 | 0.00 | 1.65 | 0.00 | 95 | 1001.8 |
| 20260508091526 | 5 | 330 | 4.8 | 11.3 | 0.00 | 1.65 | 0.00 | 95 | 1001.8 |
| 20260508090022 | 5 | 16 | 3.2 | 14.5 | 0.00 | 1.65 | 0.00 | 95 | 1001.5 |
| 20260508084516 | 5 | 319 | 3.2 | 14.5 | 0.00 | 1.65 | 0.00 | 95 | 1001.7 |
| 20260508083015 | 5 | 358 | 1.6 | 11.3 | 0.00 | 1.65 | 0.00 | 95 | 1001.3 |
| 20260508081516 | 5 | 333 | 3.2 | 14.5 | 0.00 | 1.65 | 0.00 | 95 | 1001.6 |
| 20260508080014 | 5 | 5 | 4.8 | 14.5 | 0.00 | 1.65 | 0.00 | 95 | 1001.1 |
| 20260508074512 | 5 | 318 | 4.8 | 12.9 | 0.00 | 1.65 | 0.00 | 95 | 1001.1 |
| 20260508073011 | 5 | 322 | 4.8 | 11.3 | 0.00 | 1.65 | 0.00 | 95 | 1001.2 |
| 20260508071517 | 6 | 8 | 3.2 | 12.9 | 0.00 | 1.65 | 0.00 | 95 | 1001.2 |
| 20260508070009 | 6 | 338 | 1.6 | 14.5 | 0.00 | 1.65 | 0.00 | 95 | 1001.3 |
| 20260508064511 | 6 | 6 | 3.2 | 14.5 | 0.00 | 1.65 | 0.00 | 95 | 1001.1 |
| 20260508063007 | 6 | 353 | 4.8 | 14.5 | 0.00 | 1.65 | 0.00 | 95 | 1001.3 |
| 20260508061510 | 6 | 10 | 1.6 | 9.7 | 0.00 | 1.65 | 0.00 | 95 | 1001.1 |
| 20260508060005 | 5 | 251 | 0.0 | 0.0 | 0.00 | 1.65 | 0.00 | 95 | 1000.9 |
| 20260508054504 | 4 | 251 | 0.0 | 0.0 | 0.00 | 1.65 | 0.00 | 95 | 1001.0 |
| 20260508053002 | 4 | 251 | 0.0 | 0.0 | 0.00 | 1.65 | 0.00 | 95 | 1001.0 |
| 20260508051502 | 5 | 251 | 1.6 | 3.2 | 0.00 | 1.65 | 0.00 | 95 | 1000.9 |
| 20260508044607 | 5 | 251 | 0.0 | 0.0 | 0.00 | 1.65 | 0.00 | 95 | 1001.2 |
| 20260508043108 | 6 | 251 | 0.0 | 0.0 | 0.00 | 1.65 | 0.00 | 95 | 1001.2 |
| 20260508041556 | 6 | 251 | 0.0 | 0.0 | 0.00 | 1.65 | 0.00 | 95 | 1001.3 |
| 20260508040059 | 6 | 251 | 0.0 | 0.0 | 0.00 | 1.65 | 0.00 | 95 | 1001.5 |
| 20260508034555 | 6 | 251 | 0.0 | 3.2 | 0.00 | 1.65 | 0.00 | 95 | 1001.5 |
| 20260508033049 | 6 | 251 | 0.0 | 3.2 | 0.00 | 1.65 | 0.00 | 95 | 1001.7 |
| 20260508031548 | 6 | 243 | 0.0 | 3.2 | 0.00 | 1.65 | 0.00 | 95 | 1001.6 |
| 20260508030056 | 6 | 246 | 0.0 | 4.8 | 0.00 | 1.65 | 0.00 | 95 | 1001.6 |
| 20260508024547 | 6 | 249 | 0.0 | 4.8 | 0.00 | 1.65 | 1.65 | 95 | 1001.5 |
| 20260508023045 | 6 | 249 | 1.6 | 6.4 | 0.00 | 1.65 | 1.65 | 95 | 1001.3 |
| 20260508021544 | 6 | 245 | 1.6 | 9.7 | 0.00 | 1.65 | 1.65 | 95 | 1001.4 |
| 20260508020047 | 6 | 241 | 1.6 | 8.0 | 0.03 | 1.65 | 1.65 | 95 | 1001.6 |
| 20260508014546 | 6 | 230 | 4.8 | 14.5 | 0.03 | 1.65 | 1.65 | 95 | 1001.6 |
| 20260508013041 | 5 | 220 | 3.2 | 9.7 | 0.03 | 1.65 | 1.65 | 95 | 1001.5 |
| 20260508011543 | 5 | 190 | 3.2 | 12.9 | 0.03 | 1.65 | 1.65 | 95 | 1001.7 |
| 20260508010139 | 5 | 178 | 3.2 | 9.7 | 0.00 | 1.65 | 1.65 | 94 | 1002.0 |
| 20260508004535 | 6 | 179 | 4.8 | 12.9 | 0.00 | 1.65 | 1.65 | 95 | 1002.3 |
| 20260508003035 | 6 | 176 | 6.4 | 17.7 | 0.00 | 1.65 | 1.65 | 95 | 1002.2 |
| 20260508001535 | 6 | 180 | 6.4 | 14.5 | 0.00 | 1.65 | 1.65 | 95 | 1002.4 |
| 20260508000032 | 6 | 207 | 1.6 | 9.7 | 0.00 | 1.65 | 1.65 | 95 | 1002.9 |
| 20260507234531 | 5 | 202 | 4.8 | 12.9 | 0.03 | 1.65 | 1.65 | 94 | 1002.4 |
| 20260507233033 | 6 | 193 | 4.8 | 12.9 | 0.03 | 1.65 | 1.65 | 95 | 1002.8 |
| 20260507231538 | 6 | 197 | 3.2 | 14.5 | 0.03 | 1.65 | 1.65 | 95 | 1002.9 |
| 20260507230029 | 6 | 185 | 4.8 | 16.1 | 0.03 | 1.65 | 1.65 | 95 | 1002.8 |
| 20260507224528 | 6 | 180 | 6.4 | 14.5 | 0.03 | 1.63 | 1.63 | 95 | 1002.9 |